1515628800.94,12070,11.63,72930.5,-4.95,-6.13,-6.19,0,*56
1515628802.19,12071,11.63,72930.3,-4.97,-6.05,-6.19,0,*52
1515628803.41,12072,11.63,72934.5,-4.97,-6.01,-6.05,0,*58
1515628804.63,12073,11.63,72934.3,-4.97,-6.01,-6.05,0,*59
1515628805.82,12074,11.63,72932.5,-4.95,-6.01,-6.13,0,*5B
1515628807.07,12075,11.63,72936.0,-4.97,-6.05,-6.19,0,*56
1515628808.32,12076,11.63,72936.3,-4.97,-6.13,-6.27,0,*5F
1515628809.54,12077,11.63,72934.8,-4.95,-6.13,-6.19,0,*51
1515628810.76,12078,11.63,72938.8,-4.97,-6.05,-6.13,0,*51
1515628812.01,12079,11.63,72936.0,-4.97,-5.93,-6.13,0,*5C
1515628813.23,12080,11.63,72932.3,-4.95,-5.93,-6.05,0,*5F
1515628814.48,12081,11.63,72928.5,-4.97,-5.93,-6.05,0,*5C
1515628815.76,12082,11.63,72928.5,-4.97,-5.89,-5.89,0,*53
1515628817.04,12083,11.63,72928.5,-4.97,-5.89,-5.93,0,*59
1515628818.25,12084,11.63,72928.5,-4.95,-5.89,-6.01,0,*54
1515628819.5,12085,11.63,72934.3,-4.97,-5.89,-6.01,0,*57
1515628820.69,12086,11.63,72930.0,-4.95,-6.01,-6.05,0,*51
1515628821.94,12087,11.63,72928.3,-4.97,-5.93,-6.01,0,*5E
1515628823.19,12088,11.63,72924.0,-4.97,-5.93,-6.01,0,*51
1515628824.44,12089,11.63,72928.3,-4.97,-5.93,-6.05,0,*54
1515628825.66,12090,11.63,72924.3,-4.97,-6.01,-6.05,0,*54
1515628826.91,12091,11.63,72926.5,-4.97,-5.93,-6.01,0,*59
1515628828.19,12092,11.63,72922.5,-4.97,-5.89,-5.93,0,*59
1515628829.44,12093,11.63,72926.8,-4.97,-5.89,-6.01,0,*50
1515628830.71,12094,11.63,72924.3,-4.97,-5.81,-5.93,0,*57
1515628831.99,12095,11.63,72924.5,-4.97,-5.89,-5.81,0,*5D
1515628833.27,12096,11.63,72926.8,-4.97,-5.81,-5.81,0,*56
1515628834.54,12097,11.63,72928.3,-4.97,-5.81,-5.81,0,*57
1515628835.82,12098,11.63,72930.8,-4.97,-5.81,-5.81,0,*58
1515628837.1,12099,11.63,72930.0,-4.97,-5.81,-5.89,0,*51
1515628838.37,12100,11.63,72934.5,-4.97,-5.81,-5.81,0,*58
1515628839.65,12101,11.63,72936.8,-4.97,-5.89,-5.81,0,*51
1515628840.93,12102,11.63,72936.3,-4.97,-5.89,-5.89,0,*5A
1515628842.21,12103,11.63,72930.0,-4.97,-5.81,-5.89,0,*53
1515628843.49,12104,11.63,72930.5,-4.97,-5.81,-5.89,0,*54
1515628844.76,12105,11.63,72928.8,-4.97,-5.89,-5.93,0,*56
1515628846.01,12106,11.63,72930.8,-4.97,-5.89,-6.01,0,*5D
1515628847.23,12107,11.63,72934.0,-4.97,-6.01,-6.01,0,*5F
1515628848.45,12108,11.63,72932.8,-4.97,-6.01,-6.13,0,*53
1515628849.67,12109,11.63,72932.5,-4.97,-6.05,-6.13,0,*56
1515628850.92,12110,11.63,72928.5,-4.97,-6.05,-6.19,0,*54
1515628852.14,12111,11.63,72932.0,-4.97,-6.01,-6.13,0,*5B
1515628853.39,12112,11.63,72928.3,-4.97,-5.93,-6.01,0,*53
1515628854.61,12113,11.63,72930.5,-4.97,-6.01,-6.05,0,*5E
1515628855.8,12114,11.63,72932.8,-5.01,-5.97,-6.05,0,*5B
1515628857.02,12115,11.63,72930.0,-5.01,-5.93,-6.05,0,*5E
1515628858.21,12116,11.63,72934.5,-5.01,-6.05,-6.09,0,*5D
1515628859.43,12117,11.63,72930.3,-4.97,-6.01,-6.05,0,*5A
1515628860.65,12118,11.63,72934.3,-4.97,-6.01,-6.05,0,*55
1515628861.9,12119,11.63,72932.5,-5.03,-6.09,-6.19,0,*5D
1515628863.09,12120,11.63,72934.3,-5.01,-6.05,-6.09,0,*58
1515628864.28,12121,11.63,72934.0,-5.01,-5.97,-6.05,0,*5D
1515628865.5,12122,11.63,72938.3,-5.01,-5.93,-6.05,0,*5A
1515628866.69,12123,11.63,72934.8,-5.01,-6.05,-6.09,0,*5B
1515628867.88,12124,11.63,72932.8,-5.01,-5.97,-6.09,0,*54
1515628869.13,12125,11.63,72936.0,-4.97,-5.93,-6.01,0,*57
1515628870.41,12126,11.63,72938.3,-4.97,-5.93,-5.93,0,*5C
1515628871.63,12127,11.63,72936.8,-4.97,-6.01,-6.05,0,*59
1515628872.88,12128,11.63,72936.0,-4.97,-5.93,-6.13,0,*59
1515628874.1,12129,11.63,72936.5,-5.01,-6.05,-6.19,0,*50
1515628875.32,12130,11.63,72936.5,-5.01,-5.97,-6.19,0,*50
1515628876.53,12131,11.63,72934.0,-5.01,-6.05,-6.19,0,*59
1515628877.75,12132,11.63,72936.8,-5.01,-6.05,-6.19,0,*5A
1515628878.97,12133,11.63,72932.0,-5.01,-6.05,-6.19,0,*5B
1515628880.19,12134,11.63,72932.3,-5.01,-6.09,-6.19,0,*50
1515628881.44,12135,11.63,72934.5,-5.03,-6.09,-6.23,0,*5A
1515628882.66,12136,11.63,72928.5,-5.01,-6.09,-6.19,0,*52
1515628883.89,12137,11.63,72934.5,-5.01,-6.19,-6.31,0,*58
1515628885.08,12138,11.63,72932.0,-5.01,-6.09,-6.09,0,*5D
1515628886.27,12139,11.63,72934.8,-5.01,-6.05,-6.09,0,*50
1515628887.52,12140,11.63,72934.5,-5.03,-5.97,-6.19,0,*55
1515628888.71,12141,11.63,72932.0,-5.01,-5.97,-6.09,0,*57
1515628889.95,12142,11.63,72930.8,-5.03,-5.93,-6.05,0,*5E
1515628891.2,12143,11.63,72932.5,-5.03,-5.93,-5.97,0,*57
1515628892.41,12144,11.63,72928.5,-5.01,-5.93,-5.97,0,*52
1515628893.66,12145,11.63,72930.0,-5.03,-5.93,-6.05,0,*59
1515628894.87,12146,11.63,72928.5,-5.03,-5.97,-6.05,0,*5E
1515628896.09,12147,11.63,72930.3,-5.03,-5.97,-5.97,0,*57
1515628897.31,12148,11.63,72930.3,-5.01,-5.93,-5.97,0,*5E
1515628898.56,12149,11.63,72924.0,-5.01,-5.93,-5.85,0,*5C
1515628899.84,12150,11.63,72926.3,-5.03,-5.85,-5.85,0,*51
1515628901.09,12151,11.63,72922.8,-5.01,-5.93,-5.85,0,*55
1515628902.37,12152,11.63,72920.8,-5.03,-5.85,-5.85,0,*53
1515628903.65,12153,11.63,72930.3,-5.03,-5.85,-5.85,0,*52
1515628904.9,12154,11.63,72932.5,-5.01,-5.81,-5.85,0,*53
1515628906.15,12155,11.63,72932.0,-5.01,-5.81,-5.81,0,*56
1515628907.39,12156,11.63,72930.0,-5.01,-5.81,-5.81,0,*55
1515628908.64,12157,11.63,72928.3,-5.01,-5.85,-5.85,0,*54
1515628909.89,12158,11.63,72926.8,-5.01,-5.93,-5.93,0,*5B
1515628911.14,12159,11.63,72928.8,-5.01,-5.85,-5.93,0,*5D
1515628912.39,12160,11.63,72926.8,-5.01,-5.93,-5.93,0,*50
1515628913.61,12161,11.63,72930.3,-5.01,-5.93,-5.97,0,*55
1515628914.83,12162,11.63,72924.3,-5.01,-5.93,-6.05,0,*5E
1515628916.05,12163,11.63,72924.0,-5.01,-5.93,-6.05,0,*5F
1515628917.27,12164,11.63,72924.3,-5.01,-5.93,-5.97,0,*50
1515628918.49,12165,11.63,72922.5,-5.01,-5.93,-6.05,0,*59
1515628919.67,12166,11.63,72926.8,-5.01,-6.05,-6.05,0,*56
1515628920.86,12167,11.63,72926.5,-5.01,-6.05,-6.09,0,*5B
1515628922.05,12168,11.63,72928.0,-5.01,-5.97,-6.09,0,*5C
1515628923.27,12169,11.63,72928.0,-5.01,-6.05,-6.19,0,*54
1515628924.48,12170,11.63,72918.5,-5.03,-6.05,-6.09,0,*5F
1515628925.73,12171,11.63,72924.5,-4.97,-5.93,-6.09,0,*5E
1515628926.92,12172,11.63,72930.3,-5.01,-6.05,-6.13,0,*54
1515628928.14,12173,11.63,72928.5,-5.01,-6.05,-6.19,0,*5F
1515628929.33,12174,11.63,72928.3,-5.01,-6.05,-6.09,0,*59
1515628930.54,12175,11.63,72926.3,-5.03,-6.05,-6.05,0,*56
1515628931.75,12176,11.63,72926.8,-5.03,-6.05,-6.09,0,*59
1515628933.0,12177,11.63,72928.0,-5.03,-6.05,-6.19,0,*59
1515628934.24,12178,11.63,72930.3,-5.03,-6.05,-6.19,0,*56
1515628935.43,12179,11.63,72920.5,-5.01,-6.05,-6.09,0,*54
1515628936.61,12180,11.63,72924.0,-5.01,-6.05,-6.09,0,*52
1515628937.83,12181,11.63,72924.3,-5.03,-6.05,-6.09,0,*51
1515628939.07,12182,11.63,72922.3,-5.03,-5.97,-6.19,0,*5B
1515628940.29,12183,11.63,72920.3,-5.03,-5.97,-6.09,0,*5B
1515628941.51,12184,11.63,72920.3,-5.01,-5.93,-6.09,0,*5A
1515628942.7,12185,11.63,72924.5,-5.01,-5.97,-6.09,0,*5F
1515628943.92,12186,11.63,72926.3,-5.01,-5.97,-6.19,0,*5D
1515628945.17,12187,11.63,72926.0,-5.03,-6.05,-6.19,0,*56
1515628946.38,12188,11.63,72924.3,-5.03,-5.97,-6.09,0,*50
1515628947.6,12189,11.63,72924.3,-5.03,-5.97,-6.09,0,*51
1515628948.84,12190,11.63,72924.8,-5.03,-6.05,-6.19,0,*50
1515628950.06,12191,11.63,72922.8,-5.01,-6.05,-6.19,0,*53
1515628951.31,12192,11.63,72920.0,-5.03,-6.09,-6.19,0,*5E
1515628952.55,12193,11.63,72926.0,-5.03,-6.05,-6.19,0,*53
1515628953.8,12194,11.63,72926.0,-5.03,-6.09,-6.19,0,*58
1515628955.05,12195,11.63,72928.0,-5.03,-6.09,-6.19,0,*59
1515628956.28,12196,11.63,72932.0,-5.05,-6.13,-6.27,0,*5A
1515628957.53,12197,11.63,72928.5,-5.03,-6.19,-6.31,0,*50
1515628958.8,12198,11.63,72928.8,-5.03,-6.19,-6.23,0,*5C
1515628960.02,12199,11.63,72930.5,-5.03,-6.09,-6.31,0,*5F
1515628961.29,12200,11.63,72924.5,-5.03,-6.19,-6.23,0,*5E
1515628962.54,12201,11.63,72928.5,-5.03,-6.19,-6.31,0,*5C
1515628963.81,12202,11.63,72926.8,-5.03,-6.19,-6.23,0,*5C
1515628965.05,12203,11.63,72924.5,-5.03,-6.09,-6.23,0,*5C
1515628966.3,12204,11.63,72922.8,-5.05,-6.23,-6.27,0,*51
1515628967.52,12205,11.63,72922.8,-5.05,-6.09,-6.27,0,*58
1515628968.75,12206,11.63,72922.8,-5.05,-6.01,-6.23,0,*57
1515628969.97,12207,11.63,72924.3,-5.05,-6.09,-6.23,0,*5E
1515628971.19,12208,11.63,72924.8,-5.05,-6.09,-6.23,0,*51
1515628972.44,12209,11.63,72930.8,-5.03,-6.05,-6.19,0,*53
1515628973.68,12210,11.63,72926.8,-5.03,-6.05,-6.19,0,*5B
1515628974.92,12211,11.63,72924.0,-5.03,-6.05,-6.19,0,*5A
1515628976.17,12212,11.63,72924.3,-5.03,-5.97,-6.19,0,*51
1515628977.38,12213,11.63,72928.8,-5.05,-6.09,-6.35,0,*5C
1515628978.62,12214,11.63,72930.5,-5.07,-6.13,-6.27,0,*51
1515628979.84,12215,11.63,72930.0,-5.05,-6.09,-6.23,0,*5D
1515628981.07,12216,11.63,72928.3,-5.05,-6.01,-6.27,0,*52
1515628982.29,12217,11.63,72932.0,-5.05,-6.13,-6.27,0,*50
1515628983.49,12218,11.63,72930.5,-5.05,-6.13,-6.35,0,*5C
1515628984.72,12219,11.63,72934.8,-5.05,-6.23,-6.35,0,*5E
1515628985.92,12220,11.63,72934.3,-5.05,-6.13,-6.35,0,*57
1515628987.15,12221,11.63,72938.3,-5.05,-6.23,-6.35,0,*55
1515628988.34,12222,11.63,72932.8,-5.05,-6.13,-6.39,0,*59
1515628989.56,12223,11.63,72932.8,-5.07,-6.13,-6.39,0,*5A
1515628990.78,12224,11.63,72938.8,-5.05,-6.23,-6.39,0,*5C
1515628992.03,12225,11.63,72932.3,-5.07,-6.23,-6.51,0,*51
1515628993.25,12226,11.63,72934.3,-5.05,-6.23,-6.47,0,*57
1515628994.47,12227,11.63,72934.3,-5.05,-6.27,-6.47,0,*52
1515628995.67,12228,11.63,72932.5,-5.05,-6.13,-6.39,0,*53
1515628996.89,12229,11.63,72938.8,-5.05,-6.23,-6.39,0,*51
1515628998.11,12230,11.63,72932.3,-5.05,-6.23,-6.39,0,*59
1515628999.31,12231,11.63,72928.0,-5.05,-6.13,-6.47,0,*52
1515629000.51,12232,11.63,72928.0,-5.05,-6.13,-6.39,0,*58
1515629001.71,12233,11.63,72930.3,-5.05,-6.13,-6.47,0,*50
1515629002.96,12234,11.63,72930.0,-5.07,-6.23,-6.39,0,*5F
1515629004.18,12235,11.63,72928.5,-5.05,-6.13,-6.27,0,*50
1515629005.4,12236,11.63,72932.3,-5.05,-6.13,-6.27,0,*53
1515629006.63,12237,11.63,72928.5,-5.05,-6.13,-6.27,0,*52
1515629007.87,12238,11.63,72928.5,-5.07,-6.13,-6.27,0,*5F
1515629009.1,12239,11.63,72930.3,-5.05,-6.13,-6.27,0,*5C
1515629010.34,12240,11.63,72928.0,-5.07,-6.13,-6.27,0,*50
1515629011.57,12241,11.63,72926.0,-5.05,-6.13,-6.27,0,*53
1515629012.79,12242,11.63,72930.3,-5.05,-6.23,-6.35,0,*50
1515629014.01,12243,11.63,72928.3,-5.05,-6.23,-6.35,0,*51
1515629015.24,12244,11.63,72928.0,-5.05,-6.23,-6.35,0,*56
1515629016.44,12245,11.63,72928.5,-5.05,-6.13,-6.35,0,*54
1515629017.64,12246,11.63,72926.0,-5.05,-6.13,-6.35,0,*57
1515629018.88,12247,11.63,72928.0,-5.07,-6.23,-6.39,0,*5B
1515629020.09,12248,11.63,72930.5,-5.05,-6.13,-6.35,0,*59
1515629021.29,12249,11.63,72932.5,-5.05,-6.13,-6.35,0,*58
1515629022.49,12250,11.63,72928.8,-5.05,-6.13,-6.35,0,*50
1515629023.72,12251,11.63,72926.3,-5.05,-6.23,-6.35,0,*52
1515629024.94,12252,11.63,72924.5,-5.05,-6.23,-6.47,0,*54
1515629026.16,12253,11.63,72928.5,-5.05,-6.27,-6.39,0,*58
1515629027.4,12254,11.63,72932.8,-5.07,-6.27,-6.47,0,*54
1515629028.64,12255,11.63,72930.8,-5.07,-6.27,-6.47,0,*55
1515629029.85,12256,11.63,72926.8,-5.05,-6.35,-6.47,0,*57
1515629031.09,12257,11.63,72926.3,-5.07,-6.27,-6.47,0,*57
1515629032.31,12258,11.63,72928.5,-5.07,-6.35,-6.47,0,*5B
1515629033.54,12259,11.63,72926.5,-5.05,-6.27,-6.47,0,*5B
1515629034.78,12260,11.63,72926.3,-5.07,-6.27,-6.47,0,*53
1515629036.02,12261,11.63,72928.8,-5.07,-6.27,-6.39,0,*5B
1515629037.22,12262,11.63,72922.0,-5.09,-6.39,-6.43,0,*54
1515629038.46,12263,11.63,72926.0,-5.07,-6.23,-6.39,0,*5D
1515629039.7,12264,11.63,72934.0,-5.07,-6.23,-6.39,0,*5A
1515629040.92,12265,11.63,72926.3,-5.07,-6.35,-6.47,0,*55
1515629042.15,12266,11.63,72926.5,-5.07,-6.35,-6.47,0,*56
1515629043.39,12267,11.63,72926.0,-5.07,-6.27,-6.47,0,*54
1515629044.63,12268,11.63,72926.3,-5.07,-6.27,-6.39,0,*52
1515629045.87,12269,11.63,72924.0,-5.07,-6.27,-6.39,0,*53
1515629047.07,12270,11.63,72930.3,-5.09,-6.39,-6.51,0,*54
1515629048.27,12271,11.63,72934.3,-5.09,-6.31,-6.51,0,*5D
1515629049.46,12272,11.63,72932.5,-5.09,-6.39,-6.51,0,*56
1515629050.71,12273,11.63,72932.8,-5.07,-6.27,-6.51,0,*56
1515629051.93,12274,11.63,72928.3,-5.05,-6.27,-6.51,0,*53
1515629053.15,12275,11.63,72930.5,-5.07,-6.35,-6.59,0,*5B
1515629054.35,12276,11.63,72928.0,-5.09,-6.39,-6.55,0,*56
1515629055.55,12277,11.63,72928.5,-5.09,-6.43,-6.55,0,*5A
1515629056.75,12278,11.63,72930.3,-5.09,-6.43,-6.55,0,*55
1515629057.95,12279,11.63,72930.0,-5.09,-6.31,-6.51,0,*55
1515629059.14,12280,11.63,72930.5,-5.09,-6.39,-6.51,0,*5B
1515629060.34,12281,11.63,72930.5,-5.09,-6.31,-6.51,0,*52
1515629061.54,12282,11.63,72928.5,-5.09,-6.31,-6.43,0,*52
1515629062.74,12283,11.63,72930.3,-5.09,-6.31,-6.43,0,*53
1515629063.96,12284,11.63,72930.8,-5.09,-6.27,-6.51,0,*50
1515629065.16,12285,11.63,72928.5,-5.09,-6.39,-6.51,0,*5E
1515629066.38,12286,11.63,72930.8,-5.09,-6.27,-6.51,0,*52
1515629067.57,12287,11.63,72936.8,-5.09,-6.31,-6.43,0,*57
1515629068.78,12288,11.63,72934.0,-5.09,-6.31,-6.51,0,*5B
1515629069.97,12289,11.63,72930.0,-5.09,-6.39,-6.51,0,*52
1515629071.17,12290,11.63,72930.0,-5.09,-6.31,-6.55,0,*56
1515629072.36,12291,11.63,72926.8,-5.09,-6.39,-6.55,0,*5F
1515629073.59,12292,11.63,72930.0,-5.11,-6.35,-6.69,0,*56
1515629074.78,12293,11.63,72932.8,-5.09,-6.43,-6.59,0,*5C
1515629075.98,12294,11.63,72928.3,-5.09,-6.39,-6.55,0,*5A
1515629077.17,12295,11.63,72930.0,-5.09,-6.39,-6.55,0,*5B
1515629078.37,12296,11.63,72928.0,-5.09,-6.31,-6.55,0,*50
1515629079.59,12297,11.63,72928.5,-5.09,-6.39,-6.63,0,*5C
1515629080.82,12298,11.63,72928.3,-5.11,-6.35,-6.59,0,*5F
1515629082.04,12299,11.63,72932.0,-5.11,-6.43,-6.59,0,*5F
1515629083.27,12300,11.63,72930.8,-5.11,-6.35,-6.59,0,*5F
1515629084.49,12301,11.63,72932.8,-5.11,-6.43,-6.59,0,*5F
1515629085.69,12302,11.63,72932.0,-5.09,-6.31,-6.55,0,*5C
1515629086.91,12303,11.63,72930.8,-5.09,-6.27,-6.51,0,*5E
1515629088.15,12304,11.63,72934.8,-5.11,-6.23,-6.47,0,*53
1515629089.38,12305,11.63,72930.5,-5.09,-6.19,-6.51,0,*55
1515629090.59,12306,11.63,72930.8,-5.09,-6.27,-6.39,0,*55
1515629091.82,12307,11.63,72930.5,-5.11,-6.31,-6.47,0,*53
1515629093.06,12308,11.63,72932.8,-5.11,-6.23,-6.47,0,*5F
1515629094.31,12309,11.63,72928.3,-5.11,-6.23,-6.47,0,*5E
1515629095.53,12310,11.63,72930.8,-5.09,-6.19,-6.43,0,*52
1515629096.75,12311,11.63,72934.3,-5.09,-6.27,-6.43,0,*5E
1515629097.97,12312,11.63,72934.3,-5.11,-6.31,-6.43,0,*53
1515629099.19,12313,11.63,72932.0,-5.09,-6.27,-6.51,0,*5F
1515629100.41,12314,11.63,72926.5,-5.11,-6.43,-6.51,0,*53
1515629101.64,12315,11.63,72930.3,-5.11,-6.43,-6.47,0,*55
1515629102.86,12316,11.63,72928.8,-5.11,-6.35,-6.55,0,*54
1515629104.08,12317,11.63,72930.3,-5.11,-6.43,-6.55,0,*54
1515629105.28,12318,11.63,72928.0,-5.09,-6.31,-6.51,0,*53
1515629106.48,12319,11.63,72928.8,-5.09,-6.31,-6.51,0,*52
1515629107.71,12320,11.63,72936.3,-5.11,-6.31,-6.55,0,*55
1515629108.93,12321,11.63,72932.8,-5.11,-6.35,-6.55,0,*50
1515629110.16,12322,11.63,72928.0,-5.11,-6.35,-6.59,0,*5F
1515629111.36,12323,11.63,72932.3,-5.13,-6.43,-6.59,0,*5D
1515629112.55,12324,11.63,72932.0,-5.09,-6.39,-6.55,0,*50
1515629113.77,12325,11.63,72934.5,-5.11,-6.43,-6.55,0,*55
1515629115.02,12326,11.63,72934.8,-5.11,-6.23,-6.47,0,*53
1515629116.24,12327,11.63,72928.5,-5.11,-6.35,-6.55,0,*56
1515629117.47,12328,11.63,72934.8,-5.11,-6.35,-6.55,0,*59
1515629118.69,12329,11.63,72934.5,-5.11,-6.35,-6.55,0,*58
1515629119.89,12330,11.63,72928.3,-5.09,-6.31,-6.51,0,*59
1515629121.12,12331,11.63,72932.0,-5.11,-6.35,-6.47,0,*52
1515629122.34,12332,11.63,72928.0,-5.11,-6.31,-6.59,0,*5A
1515629123.56,12333,11.63,72934.0,-5.11,-6.31,-6.55,0,*57
1515629124.79,12334,11.63,72932.0,-5.11,-6.35,-6.55,0,*54
1515629125.99,12335,11.63,72932.0,-5.09,-6.31,-6.43,0,*5F
1515629127.21,12336,11.63,72934.3,-5.11,-6.31,-6.47,0,*51
1515629128.43,12337,11.63,72934.8,-5.09,-6.23,-6.43,0,*5E
1515629129.65,12338,11.63,72932.0,-5.11,-6.31,-6.47,0,*5F
1515629130.87,12339,11.63,72930.5,-5.09,-6.27,-6.43,0,*54
1515629132.1,12340,11.63,72930.8,-5.09,-6.19,-6.43,0,*57
1515629133.35,12341,11.63,72930.8,-5.11,-6.19,-6.43,0,*5F
1515629134.6,12342,11.63,72932.0,-5.11,-6.19,-6.35,0,*5D
1515629135.84,12343,11.63,72924.8,-5.11,-6.23,-6.35,0,*55
1515629137.08,12344,11.63,72930.8,-5.11,-6.23,-6.43,0,*53
1515629138.33,12345,11.63,72928.5,-5.11,-6.23,-6.43,0,*52
1515629139.57,12346,11.63,72928.0,-5.11,-6.23,-6.35,0,*50
1515629140.82,12347,11.63,72924.8,-5.11,-6.23,-6.35,0,*51
1515629142.06,12348,11.63,72926.0,-5.11,-6.23,-6.43,0,*5F
1515629143.31,12349,11.63,72926.5,-5.11,-6.23,-6.35,0,*5F
1515629144.55,12350,11.63,72926.0,-5.11,-6.23,-6.47,0,*52
1515629145.77,12351,11.63,72924.5,-5.11,-6.31,-6.47,0,*50
1515629147.0,12352,11.63,72924.8,-5.11,-6.31,-6.55,0,*50
1515629148.2,12353,11.63,72922.5,-5.13,-6.31,-6.47,0,*50
1515629149.42,12354,11.63,72920.5,-5.11,-6.35,-6.55,0,*52
1515629150.64,12355,11.63,72926.3,-5.11,-6.43,-6.55,0,*52
1515629151.84,12356,11.63,72920.0,-5.09,-6.39,-6.51,0,*51
1515629153.06,12357,11.63,72920.8,-5.11,-6.31,-6.47,0,*56
1515629154.28,12358,11.63,72926.5,-5.11,-6.31,-6.47,0,*59
1515629155.51,12359,11.63,72924.0,-5.11,-6.43,-6.47,0,*5D
1515629156.73,12360,11.63,72926.8,-5.11,-6.43,-6.55,0,*54
1515629157.95,12361,11.63,72926.5,-5.11,-6.35,-6.55,0,*54
1515629159.15,12362,11.63,72922.5,-5.09,-6.31,-6.55,0,*5A
1515629160.37,12363,11.63,72930.3,-5.11,-6.43,-6.69,0,*58
1515629161.59,12364,11.63,72924.5,-5.11,-6.43,-6.59,0,*5C
1515629162.81,12365,11.63,72926.3,-5.11,-6.43,-6.69,0,*5E
1515629164.01,12366,11.63,72926.0,-5.09,-6.47,-6.59,0,*53
1515629165.22,12367,11.63,72924.8,-5.11,-6.47,-6.69,0,*58
1515629166.44,12368,11.63,72930.0,-5.11,-6.43,-6.69,0,*53
1515629167.63,12369,11.63,72930.0,-5.13,-6.43,-6.69,0,*50
1515629168.82,12370,11.63,72924.8,-5.13,-6.47,-6.69,0,*5C
1515629170.01,12371,11.63,72928.0,-5.13,-6.47,-6.73,0,*56
1515629171.21,12372,11.63,72928.8,-5.13,-6.47,-6.73,0,*55
1515629172.41,12373,11.63,72928.3,-5.13,-6.43,-6.59,0,*58
1515629173.6,12374,11.63,72926.0,-5.13,-6.43,-6.69,0,*5C
1515629174.8,12375,11.63,72928.0,-5.13,-6.43,-6.59,0,*5E
1515629176.01,12376,11.63,72922.3,-5.13,-6.35,-6.59,0,*5C
1515629177.21,12377,11.63,72922.8,-5.17,-6.35,-6.51,0,*51
1515629178.41,12378,11.63,72930.5,-5.13,-6.31,-6.55,0,*5A
1515629179.61,12379,11.63,72924.8,-5.13,-6.31,-6.55,0,*5B
1515629180.83,12380,11.63,72924.5,-5.11,-6.35,-6.55,0,*5B
1515629182.05,12381,11.63,72924.8,-5.11,-6.43,-6.59,0,*57
1515629183.27,12382,11.63,72926.3,-5.11,-6.35,-6.69,0,*56
1515629184.48,12383,11.63,72924.8,-5.13,-6.35,-6.59,0,*56
1515629185.67,12384,11.63,72926.0,-5.13,-6.43,-6.69,0,*53
1515629186.87,12385,11.63,72920.3,-5.13,-6.35,-6.69,0,*53
1515629188.07,12386,11.63,72922.3,-5.13,-6.35,-6.59,0,*53
1515629189.27,12387,11.63,72920.8,-5.13,-6.35,-6.59,0,*52
1515629190.47,12388,11.63,72918.0,-5.13,-6.43,-6.55,0,*50
1515629191.68,12389,11.63,72922.5,-5.13,-6.35,-6.59,0,*5C
1515629192.9,12390,11.63,72918.0,-5.17,-6.47,-6.63,0,*5C
1515629194.09,12391,11.63,72914.0,-5.13,-6.43,-6.69,0,*57
1515629195.29,12392,11.63,72920.5,-5.13,-6.43,-6.59,0,*57
1515629196.49,12393,11.63,72918.5,-5.17,-6.47,-6.59,0,*56
1515629197.69,12394,11.63,72924.3,-5.13,-6.43,-6.59,0,*51
1515629198.89,12395,11.63,72924.0,-5.13,-6.35,-6.59,0,*51
1515629200.11,12396,11.63,72922.3,-5.17,-6.39,-6.63,0,*53
1515629201.3,12397,11.63,72922.5,-5.13,-6.43,-6.69,0,*51
1515629202.5,12398,11.63,72922.5,-5.13,-6.43,-6.59,0,*5D
1515629203.69,12399,11.63,72920.5,-5.13,-6.47,-6.69,0,*5B
1515629204.89,12400,11.63,72930.3,-5.13,-6.47,-6.73,0,*57
1515629206.08,12401,11.63,72920.8,-5.13,-6.47,-6.73,0,*56
1515629207.28,12402,11.63,72926.3,-5.13,-6.47,-6.73,0,*55
1515629208.48,12403,11.63,72924.0,-5.17,-6.51,-6.77,0,*53
1515629209.67,12404,11.63,72926.8,-5.13,-6.47,-6.69,0,*58
1515629210.87,12405,11.63,72924.3,-5.13,-6.43,-6.73,0,*56
1515629212.06,12406,11.63,72926.5,-5.13,-6.47,-6.73,0,*51
1515629213.25,12407,11.63,72926.5,-5.13,-6.47,-6.69,0,*5B
1515629214.44,12408,11.63,72924.5,-5.13,-6.47,-6.69,0,*54
1515629215.64,12409,11.63,72924.0,-5.13,-6.47,-6.59,0,*56
1515629216.83,12410,11.63,72926.5,-5.13,-6.47,-6.69,0,*5D
1515629218.03,12411,11.63,72924.8,-5.17,-6.51,-6.73,0,*54
1515629219.23,12412,11.63,72930.3,-5.17,-6.47,-6.73,0,*50
1515629220.43,12413,11.63,72922.3,-5.17,-6.51,-6.73,0,*56
1515629221.64,12414,11.63,72924.3,-5.17,-6.39,-6.63,0,*5E
1515629222.87,12415,11.63,72926.5,-5.17,-6.47,-6.63,0,*56
1515629224.09,12416,11.63,72924.0,-5.17,-6.39,-6.63,0,*5C
1515629225.28,12417,11.63,72922.8,-5.13,-6.43,-6.69,0,*5E
1515629226.48,12418,11.63,72922.5,-5.13,-6.43,-6.59,0,*52
1515629227.67,12419,11.63,72930.8,-5.17,-6.47,-6.73,0,*5B
1515629228.87,12420,11.63,72930.3,-5.13,-6.43,-6.59,0,*59
1515629230.07,12421,11.63,72932.3,-5.17,-6.47,-6.73,0,*50
1515629231.27,12422,11.63,72938.0,-5.13,-6.43,-6.59,0,*5B
1515629232.46,12423,11.63,72934.0,-5.13,-6.47,-6.69,0,*5D
1515629233.66,12424,11.63,72928.3,-5.13,-6.55,-6.59,0,*5A
1515629234.86,12425,11.63,72930.3,-5.17,-6.59,-6.73,0,*5B
1515629236.05,12426,11.63,72934.5,-5.13,-6.55,-6.69,0,*5B
1515629237.24,12427,11.63,72932.5,-5.13,-6.47,-6.69,0,*59
1515629238.44,12428,11.63,72930.5,-5.17,-6.59,-6.73,0,*56
1515629239.65,12429,11.63,72932.0,-5.17,-6.63,-6.73,0,*5E
1515629240.85,12430,11.63,72938.8,-5.17,-6.59,-6.73,0,*5F
1515629242.05,12431,11.63,72936.3,-5.17,-6.59,-6.77,0,*5A
1515629243.25,12432,11.63,72934.3,-5.17,-6.51,-6.85,0,*5C
1515629244.45,12433,11.63,72930.3,-5.17,-6.51,-6.73,0,*54
1515629245.67,12434,11.63,72932.0,-5.19,-6.51,-6.77,0,*59
1515629246.9,12435,11.63,72934.8,-5.19,-6.51,-6.77,0,*58
1515629248.09,12436,11.63,72928.5,-5.13,-6.47,-6.69,0,*59
1515629249.29,12437,11.63,72930.8,-5.17,-6.59,-6.73,0,*58
1515629250.49,12438,11.63,72928.8,-5.17,-6.59,-6.73,0,*57
1515629251.68,12439,11.63,72930.5,-5.17,-6.59,-6.77,0,*52
1515629252.89,12440,11.63,72926.5,-5.17,-6.51,-6.77,0,*54
1515629254.08,12441,11.63,72928.8,-5.13,-6.47,-6.73,0,*52
1515629255.28,12442,11.63,72928.5,-5.17,-6.51,-6.77,0,*56
1515629256.48,12443,11.63,72934.5,-5.17,-6.59,-6.85,0,*52
1515629257.68,12444,11.63,72936.3,-5.17,-6.59,-6.77,0,*58
1515629258.91,12445,11.63,72936.0,-5.19,-6.55,-6.81,0,*52
1515629260.15,12446,11.63,72936.8,-5.19,-6.63,-6.81,0,*54
1515629261.4,12447,11.63,72932.0,-5.19,-6.63,-6.81,0,*55
1515629262.61,12448,11.63,72936.3,-5.21,-6.55,-6.81,0,*54
1515629263.86,12449,11.63,72932.3,-5.19,-6.63,-6.81,0,*5B
1515629265.08,12450,11.63,72936.0,-5.21,-6.63,-6.77,0,*51
1515629266.32,12451,11.63,72934.5,-5.19,-6.63,-6.77,0,*5B
1515629267.54,12452,11.63,72938.8,-5.19,-6.55,-6.69,0,*52
1515629268.76,12453,11.63,72938.8,-5.19,-6.51,-6.77,0,*58
1515629269.99,12454,11.63,72938.0,-5.19,-6.51,-6.69,0,*50
1515629271.21,12455,11.63,72932.8,-5.19,-6.51,-6.69,0,*51
1515629272.41,12456,11.63,72930.8,-5.21,-6.55,-6.77,0,*52
1515629273.61,12457,11.63,72928.5,-5.21,-6.55,-6.69,0,*5C
1515629274.83,12458,11.63,72932.0,-5.19,-6.55,-6.69,0,*58
1515629276.04,12459,11.63,72930.8,-5.21,-6.63,-6.77,0,*58
1515629277.29,12460,11.63,72932.0,-5.19,-6.63,-6.77,0,*59
1515629278.53,12461,11.63,72928.8,-5.19,-6.63,-6.77,0,*58
1515629279.73,12462,11.63,72934.8,-5.21,-6.55,-6.77,0,*55
1515629280.95,12463,11.63,72930.5,-5.19,-6.55,-6.77,0,*5F
1515629282.18,12464,11.63,72932.3,-5.19,-6.55,-6.77,0,*58
1515629283.38,12465,11.63,72928.5,-5.21,-6.55,-6.77,0,*52
1515629284.58,12466,11.63,72930.3,-5.21,-6.55,-6.77,0,*51
1515629285.8,12467,11.63,72924.5,-5.21,-6.63,-6.77,0,*55
1515629287.02,12468,11.63,72930.0,-5.21,-6.63,-6.81,0,*53
1515629288.25,12469,11.63,72932.0,-5.21,-6.63,-6.81,0,*52
1515629289.45,12470,11.63,72926.8,-5.21,-6.55,-6.81,0,*5F
1515629290.68,12471,11.63,72920.0,-5.21,-6.63,-6.81,0,*5B
1515629291.88,12472,11.63,72930.0,-5.25,-6.59,-6.85,0,*51
1515629293.07,12473,11.63,72924.5,-5.25,-6.69,-6.85,0,*53
1515629294.3,12474,11.63,72926.8,-5.21,-6.63,-6.81,0,*5E
1515629295.52,12475,11.63,72928.5,-5.21,-6.63,-6.81,0,*5F
1515629296.77,12476,11.63,72926.3,-5.19,-6.63,-6.89,0,*5F
1515629297.99,12477,11.63,72926.8,-5.21,-6.63,-6.81,0,*5D
1515629299.21,12478,11.63,72920.5,-5.21,-6.63,-6.81,0,*52
1515629300.42,12479,11.63,72926.0,-5.21,-6.55,-6.81,0,*56
1515629301.63,12480,11.63,72918.8,-5.21,-6.55,-6.81,0,*50
1515629302.83,12481,11.63,72918.8,-5.21,-6.55,-6.77,0,*58
1515629304.03,12482,11.63,72918.3,-5.21,-6.55,-6.77,0,*5B
1515629305.24,12483,11.63,72916.0,-5.25,-6.55,-6.81,0,*57